Location: Albany
(35.0170°S, 117.8920°E)
Time: 07:24:15
(UTC+08:00)

Explorer 7 - Visible Passes

Search period start: 19 May 2021 00:00
Search period end: 29 May 2021 00:00
Orbit: 484 x 677 km, 50.3° (Epoch: 18 May)

Date Brightness Start Highest point End Pass type
(mag) Time Alt. Az. Time Alt. Az. Time Alt. Az.
19 May 9.8 04:08:00 14° NE 04:08:00 14° NE 04:08:41 10° NE visible
19 May 9.4 19:36:47 10° NNW 19:37:42 16° NNW 19:37:42 16° NNW visible
20 May 9.0 19:40:51 10° NW 19:42:35 23° NW 19:42:35 23° NW visible
21 May 8.8 18:06:52 10° NNE 18:09:40 17° NE 18:11:05 15° ENE visible
21 May 8.9 19:45:13 10° WNW 19:47:24 28° WNW 19:47:24 28° WNW visible
22 May 8.1 18:10:04 10° N 18:13:48 28° NE 18:15:48 20° E visible
22 May 9.0 19:49:51 10° WNW 19:52:07 27° W 19:52:07 27° W visible
23 May 7.4 18:13:50 10° NNW 18:18:02 48° NE 18:20:27 24° ESE visible
23 May 9.3 19:54:42 10° W 19:56:46 22° WSW 19:56:46 22° WSW visible
24 May 7.0 18:17:59 10° NW 18:22:20 82° NE 18:25:01 25° SE visible
24 May 9.6 19:59:44 10° WSW 20:01:18 17° WSW 20:01:18 17° WSW visible
25 May 7.4 18:22:24 10° WNW 18:26:44 62° SW 18:29:29 23° SE visible
25 May 9.9 20:04:55 10° WSW 20:05:47 13° SW 20:05:47 13° SW visible
26 May 8.0 18:27:05 10° WNW 18:31:14 40° SSW 18:33:53 21° SSE visible
27 May 8.6 18:31:59 10° W 18:35:48 28° SSW 18:38:14 18° SSE visible
28 May 9.0 18:37:04 10° WSW 18:40:28 21° SSW 18:42:31 16° SSE visible
